Location: Allen Fire Department Station 4
(33.1073°N, 96.6988°W)
Time: 16:28:03
(UTC+00:00)

Aurora 2 Rocket - Pass Details

Date: 04 July 2022
Orbit: 389 x 1718 km, 25.0° (Epoch: 06 August)

Event Time Altitude Azimuth Distance (km) Brightness Sun altitude
Rises 02:04:48 0° 230° (SW) 4,966 7.4 -5.4°
Reaches altitude 10° 02:08:45 10° 221° (SW) 3,911 6.8 -6.1°
Maximum altitude 02:17:29 32° 164° (SSE) 2,319 5.1 -7.6°
Drops below altitude 10° 02:24:40 10° 105° (ESE) 3,199 5.6 -8.9°
Enters shadow 02:25:17 - 103° (ESE) 3,352 5.7 -9.0°
